EN

Hourly Weather Alvor

Today, 28 January, Thursday

Time Temperature Precipitation Wind Pressure Humidity
00:00 +15°C° 0 mm 1 mps 766 mmHg 88%
01:00 +14°C° 0 mm 1 mps 766 mmHg 87%
02:00 +14°C° 0 mm 1 mps 766 mmHg 85%
03:00 +14°C° 0 mm 1 mps 766 mmHg 86%
04:00 +14°C° 0 mm 1 mps 765 mmHg 86%
05:00 +14°C° 0 mm 1 mps 765 mmHg 87%
06:00 +15°C° 0 mm 1 mps 766 mmHg 85%
07:00 +15°C° 0 mm 1 mps 766 mmHg 83%
08:00 +16°C° 0 mm 1 mps 766 mmHg 81%
09:00 +19°C° 0 mm 1 mps 766 mmHg 76%
10:00 +21°C° 0 mm 1 mps 766 mmHg 70%
11:00 +20°C° 0 mm 0 mps 766 mmHg 65%
12:00 +22°C° 0 mm 1 mps 766 mmHg 66%
13:00 +22°C° 0 mm 1 mps 765 mmHg 66%
14:00 +22°C° 0 mm 1 mps 764 mmHg 66%
15:00 +21°C° 0 mm 1 mps 765 mmHg 75%
16:00 +18°C° 0 mm 2 mps 765 mmHg 83%
17:00 +16°C° 0 mm 2 mps 765 mmHg 92%
18:00 +15°C° 0 mm 2 mps 765 mmHg 93%
19:00 +14°C° 0 mm 3 mps 765 mmHg 94%
20:00 +13°C° 0 mm 3 mps 765 mmHg 95%
21:00 +13°C° 0 mm 3 mps 765 mmHg 94%
22:00 +14°C° 0 mm 2 mps 766 mmHg 94%
23:00 +13°C° 0 mm 2 mps 766 mmHg 94%

Tomorrow, 29 January, Friday

Time Temperature Precipitation Wind Pressure Humidity
00:00 +13°C° 0 mm 2 mps 765 mmHg 94%
01:00 +12°C° 0 mm 3 mps 765 mmHg 95%
02:00 +12°C° 0 mm 3 mps 765 mmHg 95%
03:00 +12°C° 0 mm 3 mps 765 mmHg 95%
04:00 +12°C° 0 mm 3 mps 765 mmHg 95%
05:00 +12°C° 0 mm 3 mps 765 mmHg 95%
06:00 +14°C° 0 mm 2 mps 765 mmHg 94%
07:00 +14°C° 0 mm 2 mps 765 mmHg 93%
08:00 +15°C° 0 mm 1 mps 765 mmHg 91%
09:00 +16°C° 0 mm 1 mps 765 mmHg 84%
10:00 +18°C° 0 mm 2 mps 766 mmHg 78%
11:00 +20°C° 0 mm 2 mps 766 mmHg 71%
12:00 +20°C° 0 mm 2 mps 766 mmHg 71%
13:00 +20°C° 0 mm 3 mps 765 mmHg 72%
14:00 +20°C° 0 mm 3 mps 765 mmHg 73%
15:00 +18°C° 0 mm 3 mps 764 mmHg 79%
16:00 +16°C° 0 mm 3 mps 764 mmHg 86%
17:00 +15°C° 0 mm 2 mps 764 mmHg 93%
18:00 +13°C° 0 mm 3 mps 765 mmHg 94%
19:00 +13°C° 0 mm 3 mps 765 mmHg 95%
20:00 +13°C° 0 mm 3 mps 766 mmHg 96%
21:00 +13°C° 0 mm 3 mps 766 mmHg 96%
22:00 +13°C° 0 mm 3 mps 765 mmHg 97%
23:00 +14°C° 0 mm 3 mps 765 mmHg 97%

Day after tomorrow, 30 January, Saturday

Time Temperature Precipitation Wind Pressure Humidity
00:00 +14°C° 0 mm 3 mps 765 mmHg 96%
01:00 +14°C° 0 mm 4 mps 765 mmHg 95%
02:00 +14°C° 0 mm 4 mps 764 mmHg 94%
03:00 +14°C° 0 mm 4 mps 764 mmHg 95%
04:00 +14°C° 0 mm 4 mps 764 mmHg 95%
05:00 +14°C° 0 mm 4 mps 764 mmHg 96%
06:00 +15°C° 0 mm 4 mps 764 mmHg 95%
07:00 +15°C° 0 mm 4 mps 764 mmHg 93%
08:00 +15°C° 0 mm 4 mps 765 mmHg 92%
09:00 +16°C° 0 mm 5 mps 765 mmHg 84%
10:00 +17°C° 0 mm 5 mps 765 mmHg 76%
11:00 +17°C° 0 mm 5 mps 765 mmHg 67%
12:00 +17°C° 0 mm 5 mps 765 mmHg 66%
13:00 +17°C° 0 mm 6 mps 765 mmHg 65%
14:00 +16°C° 0 mm 6 mps 764 mmHg 64%
15:00 +15°C° 0 mm 6 mps 764 mmHg 70%
16:00 +14°C° 0 mm 6 mps 765 mmHg 76%
17:00 +11°C° 0 mm 6 mps 765 mmHg 82%
18:00 +12°C° 0 mm 5 mps 765 mmHg 81%
19:00 +12°C° 0 mm 5 mps 766 mmHg 81%
20:00 +12°C° 0 mm 5 mps 766 mmHg 80%
21:00 +12°C° 0 mm 4 mps 766 mmHg 82%
22:00 +11°C° 0 mm 4 mps 766 mmHg 84%
23:00 +11°C° 0 mm 4 mps 766 mmHg 85%

31 January, Sunday

Time Temperature Precipitation Wind Pressure Humidity
00:00 +11°C° 0 mm 4 mps 766 mmHg 86%
01:00 +11°C° 0 mm 4 mps 766 mmHg 87%
02:00 +10°C° 0 mm 3 mps 766 mmHg 88%
03:00 +10°C° 0 mm 3 mps 766 mmHg 90%
04:00 +10°C° 0 mm 3 mps 765 mmHg 91%
05:00 +10°C° 0 mm 2 mps 765 mmHg 92%
06:00 +12°C° 0 mm 2 mps 766 mmHg 90%
07:00 +13°C° 0 mm 2 mps 766 mmHg 87%
08:00 +13°C° 0 mm 2 mps 766 mmHg 85%
09:00 +15°C° 0 mm 2 mps 766 mmHg 80%
10:00 +16°C° 0 mm 3 mps 766 mmHg 75%
11:00 +17°C° 0 mm 4 mps 766 mmHg 70%
12:00 +18°C° 0 mm 4 mps 766 mmHg 69%
13:00 +18°C° 0 mm 4 mps 766 mmHg 68%
14:00 +17°C° 0 mm 5 mps 765 mmHg 67%
15:00 +16°C° 0 mm 5 mps 765 mmHg 74%
16:00 +15°C° 0 mm 4 mps 765 mmHg 81%
17:00 +13°C° 0 mm 4 mps 765 mmHg 87%
18:00 +13°C° 0 mm 4 mps 765 mmHg 90%
19:00 +13°C° 0 mm 4 mps 765 mmHg 93%
20:00 +13°C° 0 mm 4 mps 765 mmHg 95%
21:00 +13°C° 0 mm 3 mps 765 mmHg 95%
22:00 +14°C° 0 mm 3 mps 765 mmHg 94%
23:00 +14°C° 0 mm 3 mps 765 mmHg 94%

1 February, Monday

Time Temperature Precipitation Wind Pressure Humidity
00:00 +14°C° 0 mm 3 mps 765 mmHg 94%
01:00 +13°C° 0 mm 3 mps 765 mmHg 95%
02:00 +13°C° 0 mm 3 mps 765 mmHg 95%
03:00 +14°C° 0 mm 2 mps 765 mmHg 95%
04:00 +14°C° 0 mm 2 mps 764 mmHg 95%
05:00 +14°C° 0 mm 2 mps 764 mmHg 95%
06:00 +15°C° 0 mm 2 mps 765 mmHg 95%
07:00 +15°C° 0 mm 2 mps 765 mmHg 94%
08:00 +16°C° 0 mm 2 mps 766 mmHg 93%
09:00 +17°C° 0 mm 2 mps 766 mmHg 88%
10:00 +18°C° 0 mm 2 mps 766 mmHg 83%
11:00 +19°C° 0 mm 2 mps 766 mmHg 78%
12:00 +19°C° 0 mm 2 mps 765 mmHg 78%
13:00 +19°C° 0 mm 3 mps 765 mmHg 77%
14:00 +19°C° 0 mm 3 mps 764 mmHg 77%
15:00 +18°C° 0 mm 3 mps 765 mmHg 83%
16:00 +16°C° 0 mm 3 mps 765 mmHg 88%
17:00 +15°C° 0 mm 2 mps 765 mmHg 94%
18:00 +15°C° 0 mm 2 mps 765 mmHg 94%
19:00 +14°C° 0 mm 2 mps 765 mmHg 95%
20:00 +13°C° 0 mm 2 mps 765 mmHg 96%
21:00 +13°C° 0 mm 2 mps 765 mmHg 96%
22:00 +13°C° 0 mm 1 mps 765 mmHg 96%
23:00 +13°C° 0 mm 1 mps 765 mmHg 96%

2 February, Tuesday

Time Temperature Precipitation Wind Pressure Humidity
00:00 +13°C° 0 mm 1 mps 765 mmHg 96%
01:00 +12°C° 0 mm 1 mps 765 mmHg 96%
02:00 +12°C° 0 mm 1 mps 765 mmHg 95%
03:00 +12°C° 0 mm 1 mps 765 mmHg 95%
04:00 +12°C° 0 mm 1 mps 764 mmHg 95%
05:00 +12°C° 0 mm 1 mps 764 mmHg 95%
06:00 +13°C° 0 mm 1 mps 764 mmHg 92%
07:00 +13°C° 0 mm 1 mps 765 mmHg 90%
08:00 +14°C° 0 mm 1 mps 765 mmHg 88%
09:00 +16°C° 0 mm 1 mps 765 mmHg 81%
10:00 +18°C° 0 mm 1 mps 764 mmHg 74%
11:00 +19°C° 0 mm 1 mps 764 mmHg 67%
12:00 +18°C° 0 mm 2 mps 764 mmHg 67%
13:00 +18°C° 0 mm 2 mps 763 mmHg 68%
14:00 +18°C° 0 mm 2 mps 762 mmHg 69%
15:00 +17°C° 0 mm 2 mps 762 mmHg 76%
16:00 +15°C° 0 mm 2 mps 762 mmHg 83%
17:00 +14°C° 0 mm 2 mps 762 mmHg 91%
18:00 +13°C° 0 mm 1 mps 762 mmHg 92%
19:00 +13°C° 0 mm 1 mps 762 mmHg 93%
20:00 +12°C° 0 mm 1 mps 762 mmHg 94%
21:00 +12°C° 0 mm 1 mps 762 mmHg 95%
22:00 +12°C° 0 mm 1 mps 762 mmHg 95%
23:00 +12°C° 0 mm 2 mps 762 mmHg 95%
Show more